Weather History for Iowa City, IA

Change the Weather History Date:

Tuesday, May 27, 2014

  Actual Average Record
Temperature  
Mean Temperature 74 °F 66 °F  
Max Temperature 85 °F 76 °F 93 °F (1967)
Min Temperature 63 °F 55 °F 37 °F (1971)
Degree Days  
Heating Degree Days 0 3  
Month to date heating degree days 170 160  
Since 1 July heating degree days 7482 6353  
Cooling Degree Days 9 3  
Month to date cooling degree days 47 42  
Year to date cooling degree days 50 46  
Growing Degree Days 23 (Base 50)    
Moisture  
Dew Point 65 °F    
Average Humidity 78    
Maximum Humidity 100    
Minimum Humidity 55    
Precipitation  
Precipitation T in 0.12 in 2.10 in (1973)
Month to date precipitation 2.77 3.73  
Year to date precipitation 11.05 11.61  
Sea Level Pressure  
Sea Level Pressure 29.91 in    
Wind  
Wind Speed 6 mph (SSW)    
Max Wind Speed 24 mph    
Max Gust Speed 30 mph    
Visibility 10 miles    
Events Rain , Thunderstorm    
T = Trace of Precipitation, MM = Missing Value Source: NWS Daily Summary

Daily Weather History Graph

Daily Weather History Graph

Search for Another Location

Airport:

Trip Planner

Search our weather history database for the weather conditions in past years. The results will help you decide how hot, cold, wet, or windy it might be!

Date:

Astronomy

May. 27, 2014 Rise Set
Actual Time 5:37 AM CDT 8:30 PM CDT
Civil Twilight 5:04 AM CDT 9:03 PM CDT
Nautical Twilight 4:22 AM CDT 9:44 PM CDT
Astronomical Twilight 3:34 AM CDT 10:33 PM CDT
Moon 5:01 AM CDT (5/27) 7:31 PM CDT (5/27)
Length of Visible Light 15h 59m
Length of Day
14h 53m
Waning Crescent, 1% of the Moon is Illuminated
May 27
Waning Crescent
May 28
New
Jun 5
First Quarter
Jun 12
Full
Jun 19
Last Quarter

Hourly Weather History & Observations

Time (CDT) Temp. Heat Index Dew Point Humidity Pressure Visibility Wind Dir Wind Speed Gust Speed Precip Events Conditions
12:52 AM 68.0 °F - 66.9 °F 96% 29.94 in 10.0 mi SSE 3.5 mph - N/A   Partly Cloudy
1:52 AM 70.0 °F - 64.9 °F 84% 29.92 in 10.0 mi SSW 9.2 mph - N/A   Clear
2:52 AM 69.1 °F - 64.9 °F 87% 29.90 in 10.0 mi SSW 8.1 mph - N/A   Clear
3:52 AM 68.0 °F - 64.9 °F 90% 29.90 in 10.0 mi Calm Calm - N/A   Clear
4:52 AM 64.0 °F - 62.1 °F 93% 29.92 in 10.0 mi Calm Calm - N/A   Clear
5:52 AM 64.0 °F - 63.0 °F 96% 29.92 in 10.0 mi Calm Calm - N/A   Clear
6:52 AM 64.9 °F - 64.0 °F 97% 29.94 in 10.0 mi Calm Calm - N/A   Clear
7:52 AM 68.0 °F - 66.0 °F 93% 29.95 in 10.0 mi Calm Calm - N/A   Clear
8:34 AM 69.1 °F - 64.9 °F 87% 29.97 in 10.0 mi Calm Calm - N/A   Mostly Cloudy
8:52 AM 70.0 °F - 64.9 °F 84% 29.96 in 10.0 mi South 3.5 mph - N/A   Overcast
9:49 AM 73.4 °F - 66.2 °F 78% 29.96 in 10.0 mi South 9.2 mph - N/A   Scattered Clouds
9:52 AM 73.0 °F - 66.9 °F 81% 29.95 in 10.0 mi South 8.1 mph - N/A   Scattered Clouds
10:52 AM 77.0 °F - 66.9 °F 71% 29.93 in 10.0 mi South 6.9 mph - N/A   Clear
11:52 AM 79.0 °F - 66.9 °F 66% 29.93 in 10.0 mi SW 10.4 mph - N/A   Scattered Clouds
12:52 PM 81.0 °F 83.0 °F 66.0 °F 60% 29.94 in 10.0 mi SW 10.4 mph - N/A   Scattered Clouds
1:52 PM 82.9 °F 84.6 °F 64.9 °F 54% 29.91 in 10.0 mi WSW 8.1 mph - N/A   Clear
2:52 PM 82.0 °F 83.8 °F 64.9 °F 56% 29.89 in 10.0 mi West 8.1 mph - N/A   Scattered Clouds
3:52 PM 82.0 °F 84.5 °F 66.9 °F 60% 29.88 in 10.0 mi South 15.0 mph - N/A   Mostly Cloudy
4:52 PM 82.0 °F 83.4 °F 64.0 °F 54% 29.88 in 10.0 mi SSW 13.8 mph - N/A   Clear
5:14 PM 80.1 °F 81.7 °F 64.0 °F 58% 29.90 in 10.0 mi SSW 15.0 mph - N/A Thunderstorm Partly Cloudy
5:27 PM 77.0 °F - 64.0 °F 64% 29.89 in 10.0 mi SSW 18.4 mph 31.1 mph N/A Thunderstorm Thunderstorm
5:42 PM 75.0 °F - 66.9 °F 76% 29.89 in 10.0 mi SSW 15.0 mph 23.0 mph 0.00 in Rain Light Rain
5:52 PM 75.0 °F - 66.0 °F 73% 29.88 in 10.0 mi SSW 10.4 mph - 0.00 in Rain Light Rain
6:52 PM 78.1 °F - 66.9 °F 68% 29.88 in 10.0 mi SW 9.2 mph - 0.00 in   Clear
7:52 PM 77.0 °F - 66.0 °F 69% 29.88 in 10.0 mi WSW 8.1 mph - N/A   Clear
8:52 PM 75.0 °F - 66.0 °F 73% 29.89 in 10.0 mi SSW 4.6 mph - N/A   Scattered Clouds
9:52 PM 71.1 °F - 64.9 °F 81% 29.90 in 10.0 mi Calm Calm - N/A   Clear
10:52 PM 69.1 °F - 64.0 °F 84% 29.91 in 10.0 mi West 5.8 mph - N/A   Clear
11:52 PM 68.0 °F - 64.0 °F 87% 29.92 in 10.0 mi West 5.8 mph - N/A   Clear